Dewpoint
73 73 74 75 76 75 74 74 74 74 74 74 74 73 73 73 73 73 73 73 73 73 73 73 73 73 72 72 72 72 71 71 71 71 71 71 71 71 71 71 70 71 71 71 71 71 71 70 70 69 69 69 69 69 68 68 69 68 67 67 66 65 65 64 63 64 65 65 64 65 64 65 64 64 66 67 66 65 65 65 65 63 63 63 64
73 74 75 75 75 75 75 74 74 74 74 74 73 73 73 73 73 73 72 72 72 72 73 73 73 72 72 72 72 72 71 70 71 71 71 71 71 71 70 70 71 71 71 70 70 70 70 69 68 68 68 68 69 68 68 68 68 68 67 66 65 65 65 64 65 65 65 65 64 64 63 63 63 65 67 67 67 67 66 66 66 64 64 65 64
74 74 75 75 75 75 75 75 74 74 74 74 73 73 73 73 73 73 72 72 72 72 72 72 72 72 72 72 71 71 70 70 71 70 70 70 70 70 70 71 71 71 71 71 70 70 70 70 70 69 69 68 67 68 67 67 67 68 67 65 65 65 64 64 63 62 62 63 62 63 64 62 64 66 67 68 68 67 67 66 66 66 64 66 65
73 74 74 74 75 75 74 74 74 74 74 74 73 73 73 73 73 72 72 72 72 72 72 72 72 72 71 71 71 71 71 70 70 70 70 70 69 70 71 71 71 71 70 70 70 70 69 70 70 67 67 67 67 67 67 67 66 67 66 65 66 65 64 63 63 63 64 65 65 65 66 62 62 65 65 66 67 67 66 67 67 66 66 66 66
73 74 74 74 74 74 74 74 74 74 74 74 73 73 73 73 73 72 71 72 72 72 72 71 71 71 71 71 71 71 71 70 70 70 70 70 70 70 71 71 71 71 70 70 69 69 68 68 67 67 66 67 67 67 66 66 66 67 66 66 66 66 66 65 65 64 65 65 66 66 63 62 60 63 63 64 65 65 65 66 67 67 67 66 66
73 73 73 73 74 74 74 74 74 74 74 73 73 73 73 73 72 71 72 72 72 72 72 72 71 71 71 71 71 70 70 70 70 70 70 70 70 70 71 70 70 70 70 70 69 69 68 67 67 66 66 66 67 66 66 66 66 67 67 67 66 66 67 66 65 66 66 65 66 64 63 64 62 62 63 64 65 66 66 66 66 66 65 64 63
71 72 73 73 73 73 73 73 74 74 73 73 73 73 73 72 71 71 72 72 72 72 71 71 71 71 71 71 70 70 70 70 70 70 70 70 70 71 70 70 70 70 70 69 69 68 68 67 66 66 66 66 67 67 67 66 66 66 66 66 66 66 66 66 67 65 65 65 62 61 60 61 62 61 63 62 62 63 64 65 64 64 63 62 62
70 71 72 72 72 73 74 74 73 73 73 73 73 73 72 72 72 72 72 73 72 71 72 72 71 71 71 71 70 71 70 70 70 70 70 70 70 70 70 70 70 70 70 69 69 68 68 67 66 66 66 66 67 67 67 67 67 66 66 66 67 66 67 67 66 65 64 60 60 60 60 60 61 63 65 65 66 66 66 65 65 64 64 62 62
72 73 72 73 73 74 74 73 73 73 73 73 73 72 72 72 72 73 72 72 72 72 71 71 71 71 71 71 71 71 70 70 70 70 70 70 71 70 70 70 70 69 69 69 68 67 67 66 66 66 66 66 67 67 66 66 67 66 67 67 67 68 69 69 65 64 61 61 61 61 61 62 61 62 65 65 65 65 64 64 64 63 62 61 60
72 72 72 73 73 74 74 73 73 73 73 73 72 73 73 73 73 73 72 72 72 72 72 72 72 71 71 71 70 70 70 70 70 70 70 70 70 70 70 70 70 69 69 69 69 67 66 66 66 66 66 66 66 66 66 66 66 66 67 67 67 69 66 65 64 62 60 61 61 61 62 63 61 61 61 63 63 62 61 61 64 61 61 62 62
71 71 71 72 73 74 73 73 73 73 73 73 73 73 73 73 73 72 72 71 72 71 72 72 71 71 71 71 71 70 70 70 70 70 71 70 70 70 70 70 70 70 69 68 68 67 66 66 66 66 66 66 66 66 66 66 66 66 66 67 69 65 65 64 64 62 62 62 61 61 63 64 61 61 62 62 60 60 60 62 63 64 64 64 63
71 72 72 73 73 73 73 73 73 73 73 73 73 73 73 73 73 73 72 72 72 72 71 72 72 71 71 71 71 71 70 70 70 71 70 70 69 70 70 71 71 70 69 68 67 67 67 66 66 66 66 66 66 66 66 66 66 66 67 69 67 65 66 66 62 62 61 60 60 60 59 59 60 61 62 60 60 61 61 62 62 64 64 63 62
71 72 73 73 73 73 73 73 73 73 73 73 73 73 73 73 73 72 72 73 73 72 72 72 72 71 71 71 71 71 70 70 70 71 71 70 70 70 71 71 71 70 69 69 68 68 67 66 66 66 66 66 65 66 66 66 66 66 67 69 65 66 66 65 61 61 62 61 62 60 60 61 62 63 61 61 63 63 62 62 61 61 61 61 61
71 72 72 72 72 73 73 73 73 73 73 73 73 73 73 73 73 72 72 72 72 72 72 72 72 71 71 71 71 71 71 70 71 71 71 70 70 71 71 71 71 70 69 69 68 68 68 67 66 66 66 66 65 66 66 65 66 67 68 69 65 65 65 64 63 61 61 60 62 60 60 62 62 64 63 62 62 62 62 62 60 60 60 60 59
70 71 72 72 72 73 73 73 73 73 73 73 73 73 73 73 73 73 73 72 72 72 72 72 72 71 71 71 71 71 71 71 72 71 70 70 71 71 71 71 70 70 70 69 69 68 67 67 67 66 66 66 66 66 65 66 66 67 67 68 66 64 64 62 62 61 61 61 61 60 60 61 63 63 63 62 63 63 61 59 60 60 59 58 58
69 70 72 72 72 72 72 73 73 73 73 73 73 73 73 73 73 73 72 72 72 72 72 72 72 71 72 72 71 71 71 71 71 71 71 71 71 71 71 71 71 70 70 69 68 68 68 67 67 66 66 66 65 66 65 66 66 66 68 68 68 68 64 64 61 59 59 59 61 62 61 62 63 62 62 62 62 62 60 61 61 60 57 58 60
68 69 69 70 71 71 72 72 72 73 73 73 73 73 73 73 73 73 73 73 72 72 72 72 72 72 71 71 71 71 71 71 71 71 71 71 71 71 71 71 71 71 70 69 69 68 67 67 67 67 66 66 65 65 66 66 66 67 68 68 68 68 66 63 60 60 60 61 61 60 60 61 62 62 60 62 62 62 61 61 62 61 60 60 60
68 68 68 69 69 69 70 72 72 72 72 72 72 73 73 72 72 72 73 72 72 72 72 72 71 71 71 71 71 71 71 71 70 70 70 71 71 71 71 71 71 71 70 69 69 68 68 67 67 67 66 65 66 66 65 66 66 67 67 67 68 66 65 64 60 60 60 62 59 61 61 64 62 61 60 61 61 61 60 61 61 61 61 60 60
67 67 68 68 69 68 68 69 70 71 72 72 71 72 72 72 71 72 72 72 72 72 71 71 71 71 71 71 71 71 71 71 71 70 70 70 70 71 71 71 71 71 71 70 69 69 68 68 67 67 66 66 65 66 65 66 67 67 67 68 68 66 65 63 61 60 62 60 59 59 58 62 61 59 60 60 61 60 59 60 61 60 60 59 59
67 67 67 68 69 68 68 69 69 70 71 71 71 71 72 71 72 72 72 71 71 71 71 72 71 71 70 70 70 70 70 70 70 70 70 70 70 70 71 71 71 71 71 70 69 69 68 68 68 67 67 66 66 65 66 67 67 67 68 69 67 66 61 60 60 59 59 59 60 57 62 60 60 59 60 59 59 59 59 59 59 59 58 58 58
66 66 66 67 68 68 68 68 69 70 70 70 71 71 72 72 71 71 72 72 72 72 71 71 71 71 70 70 70 68 68 68 68 69 69 69 70 70 71 71 71 71 71 70 70 69 69 68 68 68 67 66 67 67 67 67 67 68 69 68 66 61 59 58 59 60 59 61 61 57 61 60 61 61 60 59 60 60 60 60 59 59 58 57 57
64 65 66 67 67 67 68 67 68 69 69 70 70 70 71 72 70 70 70 71 71 72 71 70 71 69 70 69 68 68 67 66 68 69 68 69 69 70 70 70 70 71 71 70 70 70 69 69 68 68 68 67 67 64 66 67 68 68 68 68 64 58 58 59 59 59 61 59 61 61 61 60 60 60 61 60 60 60 60 59 59 59 58 58 58
64 65 65 66 66 67 67 67 67 67 68 69 69 70 69 69 69 70 71 71 72 72 70 70 67 67 67 68 69 67 67 68 68 69 69 69 69 70 70 70 70 70 71 70 70 70 70 69 68 69 68 68 66 64 64 63 63 66 67 64 63 59 58 58 58 59 58 58 57 63 61 60 60 59 59 58 60 61 59 59 59 59 58 58 58
63 64 65 67 66 66 67 67 67 67 68 68 68 68 69 69 69 69 68 69 69 70 68 67 67 67 67 66 66 67 68 66 69 71 70 68 67 70 70 70 70 70 70 70 70 70 70 69 69 69 69 69 65 65 65 64 64 63 61 63 62 59 57 58 58 57 57 60 58 61 61 61 60 59 59 59 59 59 58 59 59 59 58 58 58
64 66 66 66 67 66 66 66 67 67 67 67 67 67 68 68 69 69 68 68 68 68 67 67 67 66 66 67 66 66 66 65 66 67 68 67 66 67 68 68 69 68 69 67 67 69 69 68 67 68 66 66 66 65 64 64 65 65 64 63 63 59 58 58 58 58 58 59 60 62 62 61 60 59 59 59 59 59 58 59 59 59 58 58 57
66 64 65 66 67 68 68 67 67 67 66 66 66 68 67 67 67 67 68 68 68 68 68 67 67 66 66 67 67 66 65 65 65 65 66 66 66 66 66 67 67 68 69 67 67 67 67 67 67 67 67 66 66 66 64 65 64 65 65 63 62 59 57 57 58 58 59 60 63 63 62 61 60 60 60 59 59 58 58 58 59 59 59 58 57
65 66 66 67 67 67 67 66 66 66 66 67 66 66 66 67 67 67 67 66 67 67 67 67 67 67 66 67 65 64 64 64 64 65 65 65 65 66 65 66 67 66 68 67 66 66 67 67 67 67 67 67 67 66 65 64 64 65 65 65 62 58 58 57 57 58 59 61 64 64 62 61 60 60 60 60 59 58 58 58 58 58 59 59 58
66 66 66 66 66 66 66 66 66 66 65 66 65 65 65 66 67 68 67 69 68 67 67 67 67 67 67 67 68 64 64 64 64 64 64 64 65 65 66 65 66 67 67 67 66 65 66 67 66 67 68 68 67 67 66 65 65 65 65 65 63 59 57 57 57 57 59 61 63 63 63 62 61 60 60 61 61 59 59 59 58 58 59 59 58
65 65 64 64 64 65 66 65 65 65 65 65 64 64 64 65 65 66 66 70 66 66 66 67 67 67 68 67 68 65 64 65 64 63 64 64 64 64 65 65 66 67 67 67 66 65 65 66 66 66 67 67 67 67 67 66 66 66 65 64 62 59 57 57 56 57 59 61 62 63 64 63 62 61 61 61 61 61 60 59 59 59 59 59 58
64 64 63 63 63 64 64 64 65 64 64 64 64 63 64 65 65 65 66 69 66 67 67 66 66 67 68 67 68 66 65 65 64 64 63 63 64 63 64 65 65 66 67 67 67 66 65 65 65 65 65 66 66 66 67 66 65 65 64 63 62 59 58 57 57 57 58 60 61 63 65 63 62 61 61 61 62 61 60 60 60 60 59 59 58
64 63 63 63 64 64 63 64 64 66 64 64 64 63 65 64 65 66 66 66 66 68 67 66 66 66 67 67 67 67 66 66 65 65 65 64 64 64 65 65 65 66 66 67 67 66 65 65 65 65 65 65 65 66 66 65 64 64 64 64 62 59 58 58 57 57 58 59 60 61 63 64 63 62 61 62 62 62 61 61 61 60 60 59 59
63 63 63 64 64 63 63 63 63 64 65 63 64 63 64 65 66 66 65 66 67 67 67 67 68 67 67 66 66 67 67 66 66 66 66 65 65 65 64 64 65 65 65 66 67 67 66 65 65 65 65 65 64 65 65 65 64 64 64 63 63 60 58 58 57 57 58 59 60 60 61 62 63 62 62 63 62 62 62 62 61 61 61 60 60
60 62 63 64 62 62 62 63 63 63 63 62 63 63 63 64 65 66 66 68 67 68 67 67 67 67 67 67 67 67 67 67 66 66 68 66 65 65 65 66 66 66 65 65 66 66 66 65 65 66 65 64 64 63 64 64 63 63 64 63 62 61 58 58 58 58 58 58 59 60 60 61 61 63 62 62 63 62 62 62 62 61 61 61 61
59 60 60 60 62 63 64 64 63 62 63 63 63 63 63 63 65 65 68 68 67 67 68 67 67 67 68 68 67 67 67 66 66 66 66 66 66 66 65 65 65 65 66 65 65 65 65 65 64 64 66 65 63 63 63 62 62 63 63 62 62 62 60 58 58 58 58 58 59 59 60 60 61 61 61 63 62 62 62 62 62 62 62 62 62
59 58 57 57 59 60 61 59 61 59 59 60 62 62 62 63 64 65 66 66 67 67 67 67 67 67 68 68 68 68 68 67 66 66 66 66 66 66 66 66 65 66 66 66 65 64 64 64 64 63 63 64 63 63 63 62 62 62 62 62 61 61 62 60 60 59 58 58 59 59 59 60 60 60 61 60 64 63 63 63 62 62 62 62 62
58 58 58 57 56 58 60 58 58 58 57 59 58 58 57 57 59 62 64 65 66 67 67 67 67 67 67 67 67 68 68 67 67 66 66 66 66 66 66 66 66 66 66 65 65 64 63 63 63 63 62 61 62 62 63 62 62 62 62 62 62 62 61 61 63 60 59 59 58 58 59 59 60 60 62 60 60 62 63 63 63 63 62 62 62
58 58 57 56 55 56 57 59 58 58 56 57 57 56 56 57 58 57 59 59 59 60 62 64 66 67 67 67 67 68 68 67 67 67 66 66 66 66 66 66 66 66 66 64 65 65 63 64 62 63 62 60 60 60 61 62 62 62 62 61 61 62 62 62 63 63 61 59 59 58 59 59 60 63 61 60 60 60 63 64 63 63 63 63 63
59 58 58 57 57 57 57 60 58 57 56 57 58 56 56 58 57 57 61 58 57 57 58 58 58 61 64 66 67 67 68 67 67 66 66 66 66 66 66 66 66 66 66 65 65 64 64 63 63 63 62 61 60 60 59 59 61 62 62 62 62 62 63 64 64 65 63 60 59 58 58 59 59 59 60 60 59 59 60 63 64 64 63 63 64
58 57 57 57 58 57 57 56 58 56 56 57 58 55 56 57 57 57 57 58 57 58 58 57 57 57 58 61 64 67 68 67 66 66 66 66 66 65 65 65 66 65 65 65 65 65 63 63 63 63 63 63 61 60 59 59 60 60 61 61 62 63 64 64 63 64 63 63 60 59 59 59 59 59 59 59 59 59 59 59 61 62 62 64 64
56 55 55 55 55 56 57 55 57 57 56 56 56 54 55 56 56 56 56 57 57 58 58 57 57 57 59 59 58 60 66 67 67 66 65 66 65 66 65 65 65 65 64 63 63 64 64 63 63 63 63 63 63 62 61 60 60 59 59 60 62 62 63 63 63 63 63 62 62 61 59 59 59 59 59 59 59 59 59 59 60 60 61 62 64
56 55 54 54 55 56 56 55 57 57 56 54 55 55 54 55 55 55 55 56 57 58 57 57 57 58 59 58 58 60 61 65 66 66 66 67 66 66 65 65 65 65 64 62 62 64 64 64 63 62 62 62 61 61 61 60 58 58 56 58 60 62 63 63 62 62 62 62 62 62 60 59 59 59 59 59 59 58 58 58 58 59 60 60 62
55 55 54 55 54 54 53 55 56 57 56 55 55 55 54 55 55 55 55 55 55 55 55 56 58 59 59 58 58 59 59 60 65 64 64 64 64 65 65 65 64 65 64 64 64 64 63 64 64 63 62 61 60 61 61 59 58 56 55 55 55 58 61 62 62 61 61 61 62 62 62 60 59 59 59 59 60 59 58 58 58 58 58 59 60
53 54 54 53 54 53 52 53 55 56 56 57 55 54 54 55 55 55 56 55 56 56 57 58 58 58 58 58 58 58 58 59 60 63 65 65 65 64 65 65 65 65 65 64 64 63 63 63 63 63 62 61 61 61 60 59 58 56 55 53 51 52 54 58 60 61 62 61 62 62 62 62 61 61 61 62 62 61 60 59 58 58 58 58 59
52 52 53 52 53 56 52 52 53 54 55 55 56 55 57 56 55 56 56 55 55 58 56 57 57 57 57 57 57 58 58 59 59 60 63 63 64 65 65 64 65 65 65 64 64 64 63 64 64 63 63 61 61 60 61 61 60 58 55 55 53 52 51 52 56 58 61 61 62 62 62 63 63 63 63 63 63 63 63 61 59 59 59 59 59
51 51 52 52 54 51 52 51 52 52 54 55 53 55 56 54 55 55 56 56 55 56 56 56 57 58 59 58 58 59 59 59 59 59 62 63 62 62 63 64 64 64 64 64 64 64 63 62 62 62 61 62 62 61 60 60 60 61 58 54 53 52 52 52 54 56 57 59 61 62 62 62 63 63 63 63 63 64 64 63 61 60 59 59 59
51 52 52 52 52 50 51 52 52 53 54 53 54 56 54 53 54 54 54 53 54 55 55 56 56 57 57 58 59 59 59 59 59 59 59 61 60 61 61 63 63 64 63 63 64 63 62 63 63 63 63 62 61 61 60 60 61 61 61 60 57 55 53 55 53 52 57 60 61 61 62 62 62 63 62 62 63 63 63 63 63 61 60 59 59
51 52 52 52 52 53 52 52 52 54 55 52 54 56 53 53 53 53 54 53 53 54 55 57 57 57 58 58 58 59 60 59 60 60 59 60 60 61 62 62 63 63 64 63 63 63 64 64 64 63 62 62 62 60 59 59 61 61 61 60 60 60 59 57 55 55 54 55 57 58 60 62 62 62 62 62 63 63 63 64 64 64 62 61 60
52 52 51 51 51 50 52 51 52 53 53 52 55 54 54 53 53 53 55 54 54 55 56 57 58 59 58 58 58 59 60 60 60 61 61 61 62 61 61 62 62 62 64 62 62 62 63 63 63 61 62 62 62 61 60 60 60 60 60 59 60 60 60 59 58 56 54 53 54 56 58 60 60 62 62 62 63 63 63 63 64 64 64 64 62
52 51 51 51 52 51 52 52 49 50 51 52 53 52 57 53 53 53 53 55 56 57 57 57 57 58 57 58 58 58 59 60 60 61 61 61 62 62 60 61 61 62 63 62 62 62 62 62 61 62 62 63 62 62 61 61 61 60 60 59 59 60 59 60 60 59 56 54 55 55 57 57 59 61 61 62 63 64 64 63 63 63 64 64 64
52 54 54 51 51 50 51 51 49 50 50 51 50 52 54 56 53 53 53 54 55 56 56 56 56 57 56 57 58 58 58 59 60 60 61 61 60 60 61 60 60 60 62 61 60 60 60 60 60 61 62 62 62 62 61 61 61 61 61 60 59 59 58 57 57 57 58 57 56 56 57 57 56 57 59 60 62 62 63 64 64 64 64 64 64
51 51 50 50 50 49 49 48 48 50 50 49 50 52 53 54 53 53 53 53 55 55 55 55 56 56 56 57 57 57 58 59 59 60 60 61 61 61 60 60 60 61 61 60 60 61 62 62 61 62 63 62 62 62 62 62 62 61 61 60 60 60 58 56 57 57 57 56 56 57 57 58 58 58 59 60 60 61 61 62 63 64 64 64 64